www.pogodaiklimat.ru

Погода и климат >> Архив погоды >> Португалия >> Вила-Реал


ПОГОДА в Вила-Реале

  • Прогноз погоды в Вила-Реале
  • Монитор погоды в Вила-Реале

АРХИВ ПОГОДЫ в Вила-Реале

Время (UTC), дата Ветер
(напр.,м/с)
 
Видим.   Явления Облачность Т
(С)
Тd
(С)
f
(%)
Тe
(С)
Тes
(С)
Комфортность P
(гПа)
Po
(гПа)
Тmin
(С)
Tmax
(С)
R
(мм)
R24
(мм)
S
(см)
01 13.09 штиль 0 н/о н/о +20.5 +8.0 44 +21 +21 комфорт 1024.9 960.4
02 13.09 С 1
{6}
н/о н/о +21.3 +8.0 42 +22 +22 комфорт 1024.9 960.6
03 13.09 С 2 н/о н/о +19.8 +9.0 50 +21 +21 комфорт 1025.1 960.5
04 13.09 С 2
{5}
н/о н/о +19.6 +9.2 51 +21 +21 комфорт 1025.3 960.6
05 13.09 н/о н/о +19.0 +9.4 54 1024.9 960.2
06 13.09 штиль 0 н/о н/о +18.6 +10.0 57 +19 +19 1025.7 960.8 +18.1
07 13.09 С 1 н/о н/о +18.4 +10.0 58 +20 +20 1025.7 960.8
08 13.09 С 1 н/о н/о +20.5 +10.5 53 +23 +23 комфорт 1024.9 960.4
09 13.09 С 1
{5}
н/о н/о +23.5 +11.9 48 +25 +25 комфорт 1024.4 960.6
10 13.09 С 2
{6}
н/о н/о +25.9 +11.6 41 +27 +27 жарко 1023.2 960.0
11 13.09 -5
{7}
н/о н/о +28.2 +11.3 35 1022.3 959.5
12 13.09 СВ 4-10
{10}
н/о н/о +28.9 +10.0 31 +29 +29 жарко 1021.1 958.6
13 13.09 СВ 4-10
{11}
н/о н/о +30.5 +10.3 29 +30 +30 жарко 1020.0 957.8
14 13.09 С 3-8
{9}
н/о н/о +31.8 +9.7 26 +31 +31 жарко 1018.8 957.0
15 13.09 С 2-6
{11}
н/о н/о +32.4 +7.6 21 +31 +31 жарко 1018.0 956.3
16 13.09 С 2-7
{8}
н/о н/о +31.8 +7.6 22 +30 +30 жарко 1017.6 955.9
17 13.09 -8
{9}
н/о н/о +31.1 +8.2 24 1017.9 956.0
18 13.09 С 2-6
{8}
н/о н/о +28.2 +6.8 26 +27 +27 жарко 1018.9 956.4 +33.1
19 13.09 С 1
{7}
н/о н/о +26.1 +8.1 32 +26 +26 жарко 1019.8 956.8
20 13.09 -6
{6}
н/о н/о +24.7 +8.3 35 1021.5 958.1
21 13.09 С 2
{7}
н/о н/о +23.5 +9.9 42 +25 +25 комфорт 1022.4 958.7
22 13.09 СВ 4-8
{9}
н/о н/о +21.5 +11.0 51 +23 +23 комфорт 1023.0 958.9
23 13.09 В 3-7
{8}
н/о н/о +20.5 +11.1 55 +23 +23 комфорт 1023.2 958.9
00 14.09 СЗ 1
{6}
н/о н/о +19.6 +11.5 59 +22 +22 комфорт 1023.7 959.2
01 14.09
{6}
н/о н/о +19.8 +11.5 59 1023.5 959.0
02 14.09 н/о н/о +19.4 +11.7 61 1023.0 958.5
03 14.09 С 1 н/о н/о +19.6 +11.7 60 +22 +22 комфорт 1022.4 957.9
04 14.09 штиль 0 н/о н/о +18.7 +11.9 65 +19 +19 1022.4 957.7
05 14.09 н/о н/о +17.9 +11.4 66 1022.6 957.8
06 14.09 С 2
{5}
н/о н/о +17.6 +11.3 67 +18 +18 1022.8 957.9 +17.1
07 14.09 СВ 2
{6}
н/о н/о +17.8 +11.4 66 +18 +18 1023.3 958.4
08 14.09 С 2 н/о н/о +18.7 +11.5 63 +20 +20 1023.4 958.7
09 14.09 СВ 3-6
{6}
н/о н/о +20.2 +11.5 57 +22 +22 комфорт 1022.8 958.4
10 14.09
{6}
н/о н/о +21.2 +12.5 58 1022.5 958.4
11 14.09 С 1
{6}
н/о н/о +23.7 +13.1 51 +26 +26 жарко 1021.3 957.7
12 14.09 С 2-6
{6}
н/о н/о +26.4 +12.8 43 +28 +28 жарко 1020.0 957.1
13 14.09
{5}
н/о н/о +28.4 +12.6 38 1018.7 956.3
14 14.09
{8}
н/о н/о +29.1 +11.5 34 1017.5 955.2
15 14.09 С 3-6
{8}
н/о н/о +27.5 +11.7 37 +28 +28 жарко 1017.0 954.5
16 14.09 С 2
{7}
н/о н/о +27.3 +11.7 38 +28 +28 жарко 1016.5 953.9
17 14.09
{6}
н/о н/о +22.7 +12.5 53 1017.6 954.1 0.1
18 14.09 С 1 н/о н/о +24.2 +12.7 49 +26 +26 жарко 1017.9 954.6 +30.1 0.1
19 14.09 штиль 0 н/о н/о +22.9 +13.9 57 +26 +26 жарко 1018.8 955.2
20 14.09 штиль 0 н/о н/о +22.3 +13.8 59 +25 +25 комфорт 1019.5 955.8
21 14.09 С 1 н/о н/о +22.4 +10.5 47 +24 +24 комфорт 1019.8 956.1 0.1
22 14.09 н/о н/о +21.6 +10.3 49 1019.8 955.9
23 14.09
{5}
н/о н/о +21.5 +10.9 51 1019.9 956.0
00 15.09 С 1 н/о н/о +19.8 +10.6 55 +22 +22 комфорт 1020.2 955.9
01 15.09 н/о н/о +18.8 +11.3 62 1020.3 955.8
02 15.09
{5}
н/о н/о +18.4 +10.9 62 1020.2 955.6
03 15.09 штиль 0
{5}
н/о н/о +17.9 +11.0 64 +18 +18 1020.2 955.5
04 15.09 штиль 0 н/о н/о +17.5 +11.2 67 +18 +18 1020.2 955.4
05 15.09 С 1 н/о н/о +16.6 +11.7 73 +17 +17 1020.6 955.6
06 15.09 штиль 0 н/о н/о +16.1 +11.3 73 +16 +16 1020.8 955.7 +16.0
07 15.09 штиль 0 н/о н/о +16.0 +11.5 75 +16 +16 1021.0 955.8
08 15.09 штиль 0 н/о н/о +18.7 +12.6 68 +19 +19 1020.8 956.2
09 15.09 С 1
{6}
н/о н/о +19.7 +12.8 64 +22 +22 комфорт 1020.5 956.1
10 15.09
{7}
н/о н/о +21.9 +13.4 58 1019.5 955.6
11 15.09 н/о н/о +25.6 +14.4 50 1018.8 955.7
12 15.09 С 2-6
{6}
н/о н/о +26.5 +13.8 46 +29 +29 жарко 1018.0 955.2
13 15.09 С 2-6
{6}
н/о н/о +26.7 +14.0 46 +29 +29 жарко 1017.9 955.1
14 15.09 -6
{6}
н/о н/о +26.6 +13.4 44 1017.3 954.6
15 15.09 С 1
{6}
н/о н/о +24.0 +14.7 56 +27 +27 жарко 1017.5 954.2
16 15.09 С 3-6
{6}
н/о н/о +25.8 +14.0 48 +28 +28 жарко 1016.6 953.7
17 15.09 С 1 н/о н/о +24.7 +14.3 52 +27 +27 жарко 1016.9 953.8
18 15.09 С 1 н/о н/о +24.4 +13.3 50 +27 +27 жарко 1016.8 953.7 +27.8
19 15.09 штиль 0 н/о н/о +22.2 +13.3 57 +25 +25 комфорт 1017.6 953.9
20 15.09 штиль 0 н/о н/о +21.1 +13.5 62 +24 +24 комфорт 1018.1 954.2
21 15.09 штиль 0 н/о н/о +20.3 +12.8 62 +22 +22 комфорт 1018.8 954.7
22 15.09 н/о н/о +19.9 +13.6 67 1019.4 955.1
23 15.09 С 1 н/о н/о +19.5 +13.7 69 +22 +22 комфорт 1019.3 955.0
00 16.09 С 1 н/о н/о +19.3 +13.8 70 +22 +22 комфорт 1019.3 954.9
01 16.09 штиль 0 н/о н/о +18.8 +13.4 71 +20 +20 1019.3 954.9
02 16.09 штиль 0 н/о н/о +19.0 +13.4 70 +20 +20 1018.9 954.5
03 16.09 С 1 н/о н/о +18.0 +13.4 74 +19 +19 1018.8 954.2
04 16.09 штиль 0 н/о н/о +17.8 +13.2 74 +18 +18 1018.6 953.9
05 16.09 СВ 1 н/о н/о +17.6 +13.1 75 +19 +19 1018.7 954.0
06 16.09 штиль 0 н/о н/о +16.6 +13.1 80 +17 +17 1019.1 954.2 +16.6
07 16.09 С 1 н/о н/о +16.7 +13.3 80 +18 +18 1019.5 954.6
08 16.09 н/о н/о +19.6 +14.4 72 1019.2 954.9
09 16.09 С 2 н/о н/о +20.5 +14.8 70 +24 +24 комфорт 1019.4 955.3
10 16.09 С 1
{5}
н/о н/о +23.0 +14.3 58 +27 +27 душно 1018.8 955.2
11 16.09 С 1
{5}
н/о н/о +22.9 +14.4 59 +27 +27 душно 1018.5 955.0
12 16.09 С 2
{5}
н/о н/о +23.5 +15.0 59 +26 +26 жарко 1018.0 954.6
13 16.09
{5}
н/о н/о +25.4 +14.5 51 1016.9 954.0
14 16.09 С 1 н/о н/о +23.7 +14.7 57 +26 +26 жарко 1017.2 953.9
15 16.09 С 1
{6}
н/о н/о +19.2 +17.1 88 +22 +22 комфорт 1018.3 954.0
16 16.09 штиль 0 н/о н/о +19.7 +16.8 83 +22 +22 комфорт 1017.8 953.7 0.1
17 16.09 СЗ 1 н/о н/о +19.6 +16.8 84 +23 +23 комфорт 1017.6 953.5
18 16.09 С 1 н/о н/о +19.4 +17.5 89 +23 +23 комфорт 1017.6 953.4 +26.8 0.9
19 16.09 С 1 н/о н/о +19.0 +16.6 86 +22 +22 комфорт 1017.9 953.6
20 16.09 С 1 н/о н/о +18.6 +16.9 90 +21 +21 комфорт 1018.1 953.7
21 16.09 штиль 0 н/о н/о +18.3 +16.2 88 +19 +19 1018.7 954.1 0.9
22 16.09 штиль 0 н/о н/о +18.0 +15.9 88 +18 +18 1018.7 954.1
23 16.09 С 1 н/о н/о +18.2 +15.5 84 +20 +20 1018.6 954.0
00 17.09 В 1 н/о н/о +18.3 +15.2 82 +20 +20 1018.2 953.7 0.2
01 17.09 штиль 0 н/о н/о +17.7 +14.9 84 +18 +18 1018.3 953.7
02 17.09 штиль 0 н/о н/о +17.7 +14.8 83 +18 +18 1018.2 953.5
03 17.09 С 1 н/о н/о +17.3 +14.2 82 +18 +18 1017.9 953.2
04 17.09 С 1 н/о н/о +17.1 +14.6 85 +18 +18 1017.7 953.0
05 17.09 штиль 0 н/о н/о +16.7 +13.7 82 +17 +17 1017.6 952.8
06 17.09 штиль 0 н/о н/о +16.7 +13.8 83 +17 +17 1017.9 953.1 +16.4 0.2
07 17.09 С 1 н/о н/о +16.6 +14.2 86 +17 +17 1018.1 953.3
08 17.09 штиль 0 н/о н/о +18.5 +14.6 78 +19 +19 1017.7 953.3
09 17.09 С 1 н/о н/о +20.8 +15.8 73 +25 +25 комфорт 1017.6 953.7
10 17.09 н/о н/о +22.1 +16.1 69 1017.1 953.5
11 17.09 н/о н/о +24.0 +15.6 59 1016.4 953.2
12 17.09 С 1 н/о н/о +26.8 +15.2 49 +30 +30 душно 1015.1 952.5
13 17.09
{5}
н/о н/о +27.5 +14.3 44 1014.2 951.8
14 17.09
{5}
н/о н/о +28.8 +13.8 40 1013.3 951.2
15 17.09 С 1
{5}
н/о н/о +27.9 +13.8 42 +30 +30 жарко 1012.9 950.7
16 17.09 н/о н/о +26.6 +13.8 45 1013.1 950.6
17 17.09
{5}
н/о н/о +24.8 +15.3 56 1013.8 950.9
18 17.09 С 2
{5}
н/о н/о +24.0 +13.7 53 +26 +26 жарко 1013.9 950.9 +29.5
19 17.09 С 4-7
{8}
н/о н/о +20.8 +13.7 64 +24 +24 комфорт 1015.4 951.6
20 17.09 С 2
{10}
н/о н/о +18.3 +11.8 66 +19 +19 1016.8 952.4
21 17.09 СВ 1
{6}
н/о н/о +17.6 +11.3 67 +19 +19 1017.0 952.4
22 17.09 штиль 0 н/о н/о +17.0 +11.2 69 +17 +17 1017.2 952.5
23 17.09 н/о н/о +16.4 +10.9 70 1017.2 952.3
00 18.09 С 1 н/о н/о +15.6 +10.4 71 +16 +16 1017.0 952.0
01 18.09 С 1 н/о н/о +15.1 +10.0 72 +16 +16 1017.3 952.1
02 18.09 штиль 0 н/о н/о +15.6 +10.3 71 +15 +15 1016.5 951.6
03 18.09 СВ 1 н/о н/о +14.3 +10.3 77 +15 +15 1017.0 951.7
04 18.09 СВ 1 н/о н/о +15.0 +10.5 74 +16 +16 1017.1 952.0
05 18.09 С 1 н/о н/о +14.6 +10.4 76 +15 +15 1017.4 952.2
06 18.09 С 1 н/о н/о +15.4 +10.9 75 +16 +16 1017.4 952.3 +14.0
07 18.09 штиль 0 н/о н/о +15.9 +11.3 74 +16 +16 1017.7 952.7
08 18.09 н/о н/о +17.7 +12.1 70 1017.6 953.0
09 18.09 С 1 н/о н/о +19.5 +12.7 65 +22 +22 комфорт 1017.4 953.2
10 18.09 н/о н/о +21.0 +12.9 60 1017.1 953.2
11 18.09 -5
{5}
н/о н/о +23.8 +13.1 51 1016.4 953.1
12 18.09 С 1 н/о н/о +25.7 +12.8 45 +28 +28 жарко 1015.6 952.8
13 18.09 С 2 н/о н/о +27.0 +12.7 41 +29 +29 жарко 1014.8 952.3
14 18.09 С 1 н/о н/о +27.6 +13.0 41 +29 +29 жарко 1014.2 951.8
15 18.09 С 1 н/о н/о +29.0 +12.6 36 +30 +30 жарко 1013.4 951.4
16 18.09 н/о н/о +28.5 +11.3 34 1013.2 951.1
17 18.09 З 3-6
{6}
н/о н/о +27.7 +14.3 44 +30 +30 жарко 1013.5 951.2
18 18.09 С 2
{6}
н/о н/о +25.3 +15.2 54 +28 +28 жарко 1014.2 951.4 +30.1
19 18.09 н/о н/о +22.4 +14.4 61 1015.2 951.7
20 18.09 штиль 0 н/о н/о +20.5 +14.2 67 +23 +23 комфорт 1016.1 952.2
21 18.09 С 1 н/о н/о +19.7 +13.7 68 +23 +23 комфорт 1016.5 952.4
22 18.09 штиль 0 н/о н/о +18.5 +13.8 74 +19 +19 1017.1 952.7
23 18.09 штиль 0 н/о н/о +17.9 +13.2 74 +18 +18 1017.3 952.8
00 19.09 штиль 0 н/о н/о +17.3 +13.3 77 +17 +17 1017.4 952.8
01 19.09 штиль 0 н/о н/о +16.4 +12.9 80 +16 +16 1017.7 952.9
02 19.09 штиль 0 н/о н/о +16.2 +13.0 81 +16 +16 1017.4 952.5
03 19.09 штиль 0 н/о н/о +15.0 +12.4 84 +15 +15 1017.4 952.3
04 19.09 штиль 0 н/о н/о +15.3 +12.9 86 +15 +15 1017.3 952.2
05 19.09 штиль 0 н/о н/о +14.6 +12.7 88 +14 +14 1017.5 952.2
06 19.09 штиль 0 н/о н/о +14.7 +12.5 87 +14 +14 1017.6 952.4 +14.5
07 19.09 штиль 0 н/о н/о +15.5 +12.8 84 +15 +15 1017.9 952.8
08 19.09 штиль 0 н/о н/о +17.9 +13.4 75 +18 +18 1017.6 953.1
09 19.09 С 1 н/о н/о +21.1 +13.7 63 +24 +24 комфорт 1017.1 953.3
10 19.09 н/о н/о +22.9 +13.9 57 1016.8 953.3
11 19.09 С 1 н/о н/о +26.6 +14.3 47 +29 +29 жарко 1015.5 952.9
12 19.09 С 1 н/о н/о +27.9 +14.4 44 +30 +30 жарко 1014.7 952.4
13 19.09
{5}
н/о н/о +27.6 +13.0 41 1013.9 951.6
14 19.09 -5
{5}
н/о н/о +30.2 +12.0 33 1012.5 950.8
15 19.09 С 2
{5}
н/о н/о +29.1 +11.8 34 +30 +30 жарко 1012.1 950.1
16 19.09 Ю 3
{5}
н/о н/о +25.5 +14.8 52 +28 +28 жарко 1012.5 949.8
17 19.09 Ю 3-6
{6}
н/о н/о +23.5 +15.7 62 +27 +27 душно 1013.0 949.9
18 19.09 Ю 3-6
{7}
н/о н/о +20.7 +15.6 73 +24 +24 комфорт 1014.1 950.4 +30.6
19 19.09 штиль 0
{6}
н/о н/о +19.3 +14.6 74 +21 +21 комфорт 1014.7 950.6
20 19.09 штиль 0 н/о н/о +18.4 +14.2 77 +19 +19 1015.5 951.2
21 19.09 штиль 0 н/о н/о +18.0 +13.8 76 +18 +18 1016.0 951.6
22 19.09 штиль 0 н/о н/о +17.0 +13.6 80 +17 +17 1016.0 951.4
23 19.09 штиль 0 н/о н/о +16.2 +13.6 85 +16 +16 1015.7 950.9
00 20.09 штиль 0 н/о н/о +16.3 +13.6 84 +16 +16 1015.4 950.6

 

Местоположение метеостанции Вила-Реал (Португалия): широта 41.27 долгота -7.72 высота над уровнем моря 562 м.

В архиве по умолчанию представлена погода в Вила-Реале за последнюю неделю. Архивные данные за месяц целиком и за предыдущие месяцы, начиная с января 2011 года, Вы можете получить, выбрав интересующий диапазон дат из раскрывающегося списка и нажав кнопку "Ввод!".


*Определитесь, кто Вы:
робот инопланетянин человек

Внимание! Время в таблицах - всемирное. Для получения местного времени необходимо прибавить поправку, которая равна 0 ч.

Смотрите также архив погоды в соседних городах и на ближайших метеорологических станциях:

Погода в Визеу (Португалия) (63 км)
Погода в Порту (Португалия) (80 км)
Погода в Оваре (Португалия) (86 км)
Погода в Хинсо-де-Лимии (Испания) (90 км)
Погода в Обсерватории Penhas Douradas (Португалия) (96 км)
Погода в Виана-ду-Каштелу (Португалия) (99 км)
Погода в Брагансе (Португалия) (101 км)
Погода в Витигудино (Испания) (111 км)
Погода в Саэлисес-эль-Чико (Испания) (118 км)
Погода в Оренсе (Испания) (119 км)

Пояснения к столбцам:

Ветер - указаны скорость ветра в м/с - средняя за 10 мин, порывы в срок и между сроками (в фигурных скобках) и направление, откуда дует ветер: С - северный, СВ - северо-восточный, В - восточный, ЮВ - юго-восточный, Ю - южный, ЮЗ - юго-западный, З - западный, СЗ - северо-западный.
Видимость - горизонтальная дальность видимости в метрах или километрах. При видимости от 1 до 10 км при отсутствии осадков обычно наблюдается дымка, при ухудшении видимости до 1 км и менее - туман. В сухую погоду видимость может ухудшаться дымом, пылью или мглою.
Явления - указаны атмосферные явления, наблюдавшиеся в срок или в последний час перед сроком; фигурными скобками обозначены явления, наблюдавшиеся между сроками (за 1-3 часа до срока); квадратными скобками обозначены град или гололедные отложения с указанием их диаметра в мм.
Облачность - указаны через наклонную черту общая и нижняя облачность в баллах и высота нижней границы облаков в метрах; квадратными скобками обозначены формы облаков: Ci - перистые, Cs - перисто-слоистые, Cc - перисто-кучевые, Ac - высококучевые, As - высокослоистые, Sc - слоисто-кучевые, Ns - слоисто-дождевые, Cu - кучевые, Cb - кучево-дождевые. Подробнее классификацию облаков см. в Атласе облаков (PDF).
T - Температура воздуха - температура, измеренная на высоте 2 м над землей.
Td - Температура точки росы - температура, при понижении до которой содержащийся в воздухе водяной пар достигнет насыщения.
f - Относительная влажность воздуха - влажноcть воздуха, измеренная на высоте 2 м над землей.
Te - Эффективная температура - температура, которую ощущает одетый по сезону человек в тени. Характеристика душности погоды. При расчете учитывается влияние влажности воздуха и скорости ветра на теплоощущения человека.
Tes - Эффективная температура на солнце - температура, которую ощущает человек, с поправкой на солнечный нагрев. Характеристика знойности погоды. Зависит от высоты солнца над горизонтом, облачности и скорости ветра. Ночью, в пасмурную погоду, а также при ветре 12 м/с и более поправка равна нулю.
P - Атмосферное давление - приведенное к уровню моря атмосферное давление.
Po - Атмосферное давление - измеренное на уровне метеостанции атмосферное давление.
Tmin - Минимальная температура - минимум температуры воздуха на высоте 2 м над землей.
Tmax - Максимальная температура - максимум температуры воздуха на высоте 2 м над землей.
R - Количество осадков - Количество выпавших осадков за период времени, мм. При наведении курсора мыши на число - период времени, за который выпало указанное количество осадков.
R24 - Количество осадков - Количество выпавших осадков за 24 часа, мм.
S - Снежный покров - Высота снежного покрова, см. При наведении курсора мыши на число - состояние снежного покрова и степень покрытия местности в баллах.